Waarnemingen

Advertentie
Mijn weer
London/Heathrow Intl, Groot Brittannië (3772): temperatuur & dauwpunt: 16.09.2018 06:00:00 - 22.09.2018 06:00:00 (BST)London/Heathrow Intl, Groot Brittannië (3772): windsnelheid & windstoten: 16.09.2018 06:00:00 - 22.09.2018 06:00:00 (BST)London/Heathrow Intl, Groot Brittannië (3772): windrichting: 16.09.2018 06:00:00 - 22.09.2018 06:00:00 (BST)London/Heathrow Intl, Groot Brittannië (3772): luchtdruk: 16.09.2018 06:00:00 - 22.09.2018 06:00:00 (BST)London/Heathrow Intl, Groot Brittannië (3772): zicht: 16.09.2018 06:00:00 - 22.09.2018 06:00:00 (BST)London/Heathrow Intl, Groot Brittannië (3772): Zonneschijnduur: 16.09.2018 06:00:00 - 22.09.2018 06:00:00 (BST)London/Heathrow Intl, Groot Brittannië (3772): neerslag: 16.09.2018 06:00:00 - 22.09.2018 06:00:00 (BST)
Datum & Tijd tt [°C] td [°C] ff [km/u] ff [kn] fx [km/u] fx [kn] dd ppp [hPa] vv [km] sd [min] rr [mm]
22.09.2018 06:00:00 11,6 8,4 13 7 - - WZW 1019,0 10 0 0,0
22.09.2018 05:00:00 11,6 8,7 15 8 - - WZW 1019,0 10 0 0,0
22.09.2018 04:00:00 11,5 8,8 16 9 - - WZW 1019,3 10 0 0,0
22.09.2018 03:00:00 11,1 8,1 13 7 - - ZW 1019,1 10 0 0,0
22.09.2018 02:00:00 11,3 7,8 15 8 - - WZW 1018,8 10 0 0,0
22.09.2018 01:00:00 11,2 7,4 15 8 - - WZW 1018,6 10 - 0,0
22.09.2018 00:00:00 11,8 7,5 16 9 - - WZW 1018,6 10 0 0,0
21.09.2018 23:00:00 12,5 7,8 22 12 - - WZW 1017,8 10 0 0,0
21.09.2018 22:00:00 12,8 7,8 22 12 - - WZW 1017,3 10 0 0,0
21.09.2018 21:00:00 13,3 7,0 24 13 - - WZW 1016,3 10 0 0,0
21.09.2018 20:00:00 14,1 6,2 24 13 - - WZW 1015,5 10 0 0,0
21.09.2018 19:00:00 14,9 5,6 31 17 59 32 W 1014,2 10 30 0,0
21.09.2018 18:00:00 16,1 6,3 34 18 65 35 W 1012,6 10 48 0,0
21.09.2018 17:00:00 16,4 7,6 41 22 63 34 W 1011,6 10 60 0,0
21.09.2018 16:00:00 17,1 8,0 42 23 68 37 W 1011,1 10 60 0,0
21.09.2018 15:00:00 15,8 7,7 50 27 65 35 WZW 1010,5 10 36 0,0
21.09.2018 14:00:00 13,0 9,3 46 25 81 44 W 1010,6 10 24 0,6
21.09.2018 13:00:00 16,1 4,4 41 22 61 33 WZW 1009,3 10 48 0,0
21.09.2018 12:00:00 16,1 5,4 34 18 57 31 WZW 1008,9 10 48 0,0
21.09.2018 11:00:00 14,5 6,3 37 20 52 28 W 1008,7 10 36 0,0
21.09.2018 10:00:00 12,9 5,0 31 17 46 25 W 1008,3 10 60 0,0
21.09.2018 09:00:00 11,9 5,5 31 17 - - W 1007,1 10 54 0,0
21.09.2018 08:00:00 10,8 6,5 28 15 46 25 W 1005,9 10 24 0,0
21.09.2018 07:00:00 11,0 6,8 28 15 63 34 W 1004,1 10 0 0,0
21.09.2018 06:00:00 12,4 7,2 29 16 61 33 W 1002,8 10 0 0,0
21.09.2018 05:00:00 12,6 8,8 31 17 48 26 W 1001,4 10 0 0,0
21.09.2018 04:00:00 13,4 9,6 29 16 57 31 WZW 999,8 10 0 0,0
21.09.2018 03:00:00 14,7 11,3 37 20 83 45 WZW 998,5 10 0 0,8
21.09.2018 02:00:00 17,3 16,3 37 20 63 34 ZW 997,1 3,0 0 2,0
21.09.2018 01:00:00 18,5 15,7 41 22 68 37 ZZW 997,8 10 - 0,2
21.09.2018 00:00:00 18,3 15,8 35 19 63 34 ZZW 999,2 10 0 0,2
20.09.2018 23:00:00 19,3 15,1 31 17 57 31 ZZW 1000,8 10 0 0,0
20.09.2018 22:00:00 18,9 15,6 31 17 50 27 ZZW 1002,7 10 0 0,0
20.09.2018 21:00:00 18,3 15,7 31 17 61 33 ZW 1004,1 10 0 0,4
20.09.2018 20:00:00 19,7 14,3 29 16 54 29 ZZW 1004,9 10 0 0,0
20.09.2018 19:00:00 20,3 14,0 34 18 59 32 ZW 1005,7 10 0 0,0
20.09.2018 18:00:00 20,4 13,8 34 18 65 35 ZW 1006,5 10 0 0,0
20.09.2018 17:00:00 20,9 13,9 37 20 65 35 ZW 1007,6 10 0 0,0
20.09.2018 16:00:00 21,7 13,6 35 19 61 33 ZW 1008,5 10 6 0,0
20.09.2018 15:00:00 20,8 13,5 37 20 57 31 ZW 1009,6 10 18 0,0
20.09.2018 14:00:00 19,7 14,0 29 16 63 34 ZZW 1010,2 10 0 0,0
20.09.2018 13:00:00 19,6 14,5 31 17 - - ZZW 1010,6 10 0 0,0
20.09.2018 12:00:00 18,8 15,8 22 12 - - ZZW 1011,3 10 0 0,6
20.09.2018 11:00:00 17,9 16,2 21 11 - - ZZW 1011,9 8 0 0,4
20.09.2018 10:00:00 19,3 15,0 24 13 - - ZW 1011,9 10 0 0,0
20.09.2018 09:00:00 18,5 14,7 24 13 - - ZW 1011,9 10 6 0,0
20.09.2018 08:00:00 17,7 15,0 21 11 - - ZW 1012,0 10 0 0,0
20.09.2018 07:00:00 17,1 15,5 18 10 - - ZZW 1012,1 10 0 0,0
20.09.2018 06:00:00 17,1 15,3 22 12 - - ZW 1012,3 5 0 0,0
20.09.2018 05:00:00 18,2 14,7 26 14 - - ZZW 1012,4 10 0 0,0
20.09.2018 04:00:00 18,2 14,8 22 12 - - ZZW 1012,6 10 0 0,0
20.09.2018 03:00:00 17,8 15,1 22 12 - - ZZW 1012,9 10 0 0,0
20.09.2018 02:00:00 17,5 15,5 16 9 - - ZW 1013,3 10 0 0,0
20.09.2018 01:00:00 16,6 15,4 11 6 - - ZW 1013,7 10 - 0,0
20.09.2018 00:00:00 16,3 14,6 15 8 - - WZW 1014,1 10 0 0,0
19.09.2018 23:00:00 16,5 14,3 22 12 - - WZW 1014,4 8 0 0,0
19.09.2018 22:00:00 16,6 14,8 22 12 - - W 1014,4 9 0 0,0
19.09.2018 21:00:00 19,4 14,1 31 17 48 26 ZW 1014,1 10 0 0,0
19.09.2018 20:00:00 19,6 14,2 29 16 50 27 ZW 1013,5 10 0 0,0
19.09.2018 19:00:00 20,1 14,3 31 17 55 30 ZW 1013,0 10 0 0,0
19.09.2018 18:00:00 20,5 14,3 31 17 54 29 ZW 1012,6 10 0 0,0
19.09.2018 17:00:00 21,3 13,2 34 18 59 32 ZW 1012,1 10 6 0,0
19.09.2018 16:00:00 22,4 13,6 35 19 67 36 ZW 1011,7 10 36 0,0
19.09.2018 15:00:00 22,4 13,2 37 20 70 38 ZZW 1011,5 10 54 0,0
19.09.2018 14:00:00 23,1 13,7 42 23 72 39 ZW 1011,6 10 48 0,0
19.09.2018 13:00:00 22,0 14,9 41 22 63 34 ZW 1011,7 10 24 0,0
19.09.2018 12:00:00 22,0 15,2 37 20 55 30 ZW 1011,4 10 48 0,0
19.09.2018 11:00:00 19,3 15,7 28 15 - - ZZW 1011,9 10 12 0,0
19.09.2018 10:00:00 18,1 15,6 26 14 - - ZZW 1011,9 10 12 0,0
19.09.2018 09:00:00 18,4 15,8 24 13 - - ZW 1011,9 10 12 0,0
19.09.2018 08:00:00 17,8 15,5 18 10 - - ZZW 1011,8 10 0 0,0
19.09.2018 07:00:00 17,4 15,6 18 10 - - ZZW 1011,6 10 0 0,2
19.09.2018 06:00:00 17,0 15,7 13 7 - - ZZW 1011,7 10 0 0,0
19.09.2018 05:00:00 17,0 15,6 16 9 - - ZZW 1011,6 7 0 0,0
19.09.2018 04:00:00 18,2 14,5 18 10 - - ZZW 1011,7 10 0 0,0
19.09.2018 03:00:00 18,0 14,2 18 10 - - ZZW 1012,1 10 0 0,0
19.09.2018 02:00:00 17,7 14,0 16 9 - - ZZW 1012,2 10 0 0,0
19.09.2018 01:00:00 17,8 13,8 15 8 - - ZW 1012,6 10 - 0,0
19.09.2018 00:00:00 18,2 13,9 18 10 - - ZZW 1012,5 10 0 0,0
18.09.2018 23:00:00 18,7 14,4 21 11 - - ZZW 1012,4 10 0 0,0
18.09.2018 22:00:00 18,6 14,5 22 12 - - ZZW 1012,5 10 0 0,0
18.09.2018 21:00:00 18,6 14,1 21 11 - - ZZW 1012,4 10 0 0,0
18.09.2018 20:00:00 19,2 13,9 26 14 - - ZW 1012,2 10 0 0,0
18.09.2018 19:00:00 19,6 14,0 22 12 - - ZW 1011,8 10 36 0,0
18.09.2018 18:00:00 20,7 13,7 31 17 46 25 ZW 1011,5 10 24 0,0
18.09.2018 17:00:00 20,4 14,0 34 18 50 27 ZW 1011,4 10 24 0,0
18.09.2018 16:00:00 21,9 13,4 35 19 48 26 ZW 1011,0 10 42 0,0
18.09.2018 15:00:00 22,0 12,8 28 15 48 26 ZW 1010,5 10 6 0,0
18.09.2018 14:00:00 23,2 12,1 29 16 50 27 WZW 1009,7 10 54 0,0
18.09.2018 13:00:00 21,5 11,8 28 15 50 27 WZW 1009,6 10 24 0,0
18.09.2018 12:00:00 20,6 11,8 31 17 54 29 ZW 1009,0 10 18 0,0
18.09.2018 11:00:00 19,9 12,6 31 17 55 30 WZW 1008,4 10 6 0,0
18.09.2018 10:00:00 18,5 14,3 34 18 50 27 ZW 1007,3 10 0 0,0
18.09.2018 09:00:00 18,3 14,6 28 15 46 25 ZW 1006,5 10 0 0,0
18.09.2018 08:00:00 18,2 14,8 29 16 57 31 ZZW 1005,9 10 0 0,0
18.09.2018 07:00:00 18,6 14,3 31 17 61 33 ZW 1005,1 10 0 0,0
18.09.2018 06:00:00 18,9 15,1 29 16 59 32 ZZW 1005,0 10 0 0,0
18.09.2018 05:00:00 19,4 15,1 26 14 - - ZZW 1005,0 10 0 0,0
18.09.2018 04:00:00 18,6 15,0 18 10 - - ZZW 1005,3 10 0 0,0
18.09.2018 03:00:00 17,5 13,8 15 8 - - ZZW 1006,1 10 0 0,0
18.09.2018 02:00:00 17,4 11,6 9 5 - - Z 1006,3 10 0 0,0
18.09.2018 01:00:00 17,0 10,0 8 4 - - ZZO 1006,6 10 - 0,0
18.09.2018 00:00:00 18,4 9,4 11 6 - - ZZO 1007,1 10 0 0,0
17.09.2018 23:00:00 19,6 8,8 11 6 - - Z 1007,6 10 0 0,0
17.09.2018 22:00:00 19,2 8,7 9 5 - - ZZO 1008,5 10 0 0,0
17.09.2018 21:00:00 20,0 8,8 9 5 - - ZO 1009,3 10 0 0,0
17.09.2018 20:00:00 20,2 9,9 13 7 - - ZZO 1010,1 10 6 0,0
17.09.2018 19:00:00 21,7 9,3 18 10 - - Z 1010,5 10 60 0,0
17.09.2018 18:00:00 22,9 9,4 22 12 - - ZZW 1011,0 10 60 0,0
17.09.2018 17:00:00 23,8 10,3 24 13 - - Z 1011,5 10 60 0,0
17.09.2018 16:00:00 24,3 9,6 26 14 - - Z 1012,2 10 60 0,0
17.09.2018 15:00:00 25,0 9,4 24 13 - - ZZW 1013,1 10 60 0,0
17.09.2018 14:00:00 24,3 10,5 24 13 - - ZZW 1014,0 10 60 0,0
17.09.2018 13:00:00 24,2 12,4 24 13 - - Z 1014,5 10 60 0,0
17.09.2018 12:00:00 23,4 13,2 22 12 - - ZZW 1015,3 10 60 0,0
17.09.2018 11:00:00 22,1 14,1 22 12 - - ZZW 1016,1 10 48 0,0
17.09.2018 10:00:00 20,5 15,2 21 11 - - ZZW 1016,4 10 36 0,0
17.09.2018 09:00:00 18,9 14,8 21 11 - - ZZW 1016,5 10 0 0,0
17.09.2018 08:00:00 18,5 15,2 15 8 - - ZZW 1016,6 10 0 0,0
17.09.2018 07:00:00 18,2 15,3 18 10 - - ZW 1016,6 10 0 0,0
17.09.2018 06:00:00 18,1 15,7 15 8 - - ZZW 1016,6 10 0 0,0
17.09.2018 05:00:00 18,1 15,7 13 7 - - ZW 1016,6 10 0 0,0
17.09.2018 04:00:00 17,8 15,7 9 5 - - ZZW 1017,0 10 0 0,0
17.09.2018 03:00:00 17,6 15,5 9 5 - - Z 1017,3 10 0 0,0
17.09.2018 02:00:00 17,7 15,5 9 5 - - ZZW 1017,4 10 0 0,0
17.09.2018 01:00:00 17,8 15,4 11 6 - - ZZW 1018,0 10 - -
17.09.2018 00:00:00 17,8 15,2 13 7 - - ZW 1018,2 10 0 0,0
16.09.2018 23:00:00 17,5 14,6 13 7 - - ZZW 1018,1 10 0 0,0
16.09.2018 22:00:00 17,9 14,3 15 8 - - ZZW 1018,4 10 0 0,0
16.09.2018 21:00:00 18,2 14,2 15 8 - - ZW 1018,3 10 0 0,0
16.09.2018 20:00:00 19,3 14,0 15 8 - - ZW 1017,7 10 6 0,0
16.09.2018 19:00:00 20,6 13,6 21 11 - - ZW 1017,3 10 54 0,0
16.09.2018 18:00:00 21,9 13,0 22 12 - - ZW 1017,0 10 60 0,0
16.09.2018 17:00:00 22,8 12,2 22 12 - - ZW 1016,8 10 60 0,0
16.09.2018 16:00:00 23,6 10,2 28 15 - - ZW 1016,9 10 60 0,0
16.09.2018 15:00:00 23,6 9,1 28 15 - - ZW 1017,3 10 60 0,0
16.09.2018 14:00:00 23,7 9,7 24 13 - - ZZW 1017,4 10 36 0,0
16.09.2018 13:00:00 21,7 9,4 28 15 - - ZW 1017,9 10 18 0,0
16.09.2018 12:00:00 21,3 10,9 29 16 50 27 ZZW 1018,2 10 24 0,0
16.09.2018 11:00:00 19,0 13,4 16 9 - - Z 1018,6 10 0 0,0
16.09.2018 10:00:00 17,8 13,5 21 11 - - ZZW 1018,7 10 0 0,0
16.09.2018 09:00:00 16,6 13,6 15 8 - - ZZW 1018,7 10 0 0,0
16.09.2018 08:00:00 15,0 12,5 8 4 - - Z 1019,1 10 0 0,0
16.09.2018 07:00:00 13,7 12,0 11 6 - - ZZW 1019,3 10 0 0,0
16.09.2018 06:00:00 11,9 10,5 5 3 - - ZZO 1019,4 10 0 0,0

tt = temperatuur
td = dauwpunt
ff = windsnelheid
fx = windstoten
dd = windrichting
ppp = luchtdruk
vv = zicht
sd = Zonneschijnduur
rr = neerslag

Weerstations in de omgeving